Regional Weather Roundup
Issued by NWS

Home | Current Version | Previous Version | Text Only | Print | Product List | Glossary On
Versions: 1 2 3 4 5 6 7 8 9 10 11 12 13 14 15 16 17 18 19 20 21 22 23 24 25 26 27 28 29 30 31 32 33 34 35 36 37 38 39 40 41 42 43 44 45 46 47 48 49 50
000
ASMX46 KSGX 060711
RWRMX

MEXICAN WEATHER ROUNDUP
NATIONAL WEATHER SERVICE SAN DIEGO CA
1200 AM PDT WED MAY 06 2015

BAJA CALIFORNIA

CITY           SKY/WX    TMP DP  RH WIND       PRES   REMARKS
ENSENADA NW      N/A     60  32  35 N7        29.96F
LA PAZ           N/A    N/A N/A N/A MISG        N/A
TIJUANA        CLOUDY    59  46  63 CALM      30.00

NORTHWESTERN MEXICO

CITY           SKY/WX    TMP DP  RH WIND       PRES   REMARKS
CHIHUAHUA      CLEAR     61  23  23 W6        30.01S
HERMOSILLO     CLEAR     66  50  55 CALM      29.90F

NORTHEASTERN MEXICO

CITY           SKY/WX    TMP DP  RH WIND       PRES   REMARKS
MONTERREY      CLOUDY    72  68  88 E9        29.86F
REYNOSA        MOCLDY    73  70  88 E9        29.87F
VICTORIA       MOCLDY    75  68  78 SE18      29.89F

WESTERN MEXICO

CITY           SKY/WX    TMP DP  RH WIND       PRES   REMARKS
GUADALAJARA    MOCLDY    68  48  49 W3        30.15F
MAZATLAN       CLEAR     63  57  82 N7        29.89F
PTO. VALLARTA  CLOUDY    77  73  88 SW7       29.90F
ZACATECAS      PTCLDY    61  36  39 S8        30.24F

CENTRAL MEXICO

CITY           SKY/WX    TMP DP  RH WIND       PRES   REMARKS
LEON           PTCLDY    68  48  49 NW5       30.25S
MEXICO CITY    PTCLDY    61  54  77 S6        30.31F
QUERETARO      PTCLDY    64  46  52 E5        30.24F
S. LUIS POTOSI PTCLDY    63  57  82 CALM      30.17S
TOLUCA         PTCLDY    52  46  82 SE10      30.39F

SOUTHERN MEXICO

CITY           SKY/WX    TMP DP  RH WIND       PRES   REMARKS
ACAPULCO       CLEAR     81  75  83 CALM      29.90R
TAPACHULA      MOCLDY    79  75  89 CALM      29.90F

YUCATAN PENINSULA

CITY           SKY/WX    TMP DP  RH WIND       PRES   REMARKS
CANCUN         CLEAR     79  72  78 E10       29.96F
COZUMEL        CLEAR     73  72  94 CALM      29.95F
MERIDA         CLEAR     77  68  73 E7        29.94F

$$




USA.gov is the U.S. government's official web portal to all federal, state and local government web resources and services.